EW1033 Weather Reports


Display with metric or nautical units.
time (UTC)temp
F
wind
direction
speed
MPH
gust
MPH
rain 1hr
in
rain 24hr
in
rain mn
in
humidity
%
barometer
mb
20210622171527 96 234 2.0 8.0 0.00 0.00 0.00 20 1007.1
20210622170029 95 285 0.0 6.0 0.00 0.00 0.00 22 1007.2
20210622164521 94 273 1.0 5.0 0.00 0.00 0.00 24 1007.1
20210622163010 93 274 0.0 4.0 0.00 0.00 0.00 24 1007.1
20210622161508 93 274 0.0 0.0 0.00 0.00 0.00 24 1007.2
20210622160009 93 276 0.0 3.0 0.00 0.00 0.00 25 1007.3
20210622154503 90 276 0.0 8.0 0.00 0.00 0.00 26 1007.4
20210622153128 89 17 0.0 3.0 0.00 0.00 0.00 27 1007.6
20210622151640 88 32 0.0 0.0 0.00 0.00 0.00 26 1007.6
20210622150157 87 33 0.0 0.0 0.00 0.00 0.00 27 1007.5
20210622144608 86 34 0.0 0.0 0.00 0.00 0.00 26 1007.4
20210622143147 86 34 0.0 0.0 0.00 0.00 0.00 26 1007.4
20210622141606 83 34 0.0 0.0 0.00 0.00 0.00 27 1007.2
20210622140213 79 34 0.0 0.0 0.00 0.00 0.00 31 1007.4
20210622134611 78 34 0.0 0.0 0.00 0.00 0.00 28 1007.2
20210622133103 78 34 0.0 0.0 0.00 0.00 0.00 28 1007.0
20210622131618 77 34 0.0 0.0 0.00 0.00 0.00 29 1006.9
20210622130135 75 34 0.0 0.0 0.00 0.00 0.00 29 1006.8
20210622124545 75 34 0.0 0.0 0.00 0.00 0.00 30 1006.6
20210622123025 74 34 0.0 0.0 0.00 0.00 0.00 30 1006.6
20210622121559 75 34 0.0 0.0 0.00 0.00 0.00 30 1006.6
20210622120059 74 34 0.0 0.0 0.00 0.00 0.00 30 1006.5
20210622114521 74 34 0.0 0.0 0.00 0.00 0.00 29 1006.5
20210622113028 73 34 0.0 0.0 0.00 0.00 0.00 30 1006.4
20210622111553 74 34 0.0 0.0 0.00 0.00 0.00 30 1006.3
20210622110037 75 34 0.0 0.0 0.00 0.00 0.00 29 1006.2
20210622104528 77 34 0.0 0.0 0.00 0.00 0.00 27 1006.4
20210622103014 77 34 0.0 0.0 0.00 0.00 0.00 27 1006.1
20210622101520 76 34 0.0 0.0 0.00 0.00 0.00 27 1006.2
20210622100006 76 34 0.0 0.0 0.00 0.00 0.00 27 1006.1
20210622094507 77 34 0.0 0.0 0.00 0.00 0.00 26 1006.1
20210622093024 77 34 0.0 0.0 0.00 0.00 0.00 26 1006.0
20210622091527 77 34 0.0 0.0 0.00 0.00 0.00 26 1006.0
20210622090030 77 34 0.0 0.0 0.00 0.00 0.00 27 1006.1
20210622084504 77 34 0.0 0.0 0.00 0.00 0.00 27 1006.0
20210622083010 77 34 0.0 0.0 0.00 0.00 0.00 26 1006.0
20210622081735 78 34 0.0 0.0 0.00 0.00 0.00 26 1005.9
20210622080132 79 34 0.0 0.0 0.00 0.00 0.00 26 1005.9
20210622074935 80 34 0.0 0.0 0.00 0.00 0.00 25 1005.9
20210622073210 80 34 0.0 0.0 0.00 0.00 0.00 25 1006.0
20210622071607 80 34 0.0 0.0 0.00 0.00 0.00 25 1006.0
20210622070112 81 34 0.0 0.0 0.00 0.00 0.00 24 1006.0
20210622064633 82 34 0.0 0.0 0.00 0.00 0.00 23 1005.9
20210622063157 83 34 0.0 0.0 0.00 0.00 0.00 23 1005.9
20210622061613 84 34 0.0 0.0 0.00 0.00 0.00 22 1005.9
20210622060207 83 34 0.0 0.0 0.00 0.00 0.00 22 1005.9
20210622054626 84 25 0.0 0.0 0.00 0.00 0.00 22 1005.9
20210622053050 86 280 0.0 0.0 0.00 0.00 0.00 21 1006.0
20210622051650 85 280 0.0 0.0 0.00 0.00 0.00 21 1005.8
20210622050132 88 280 0.0 0.0 0.00 0.00 0.00 20 1005.7
20210622044706 89 280 0.0 0.0 0.00 0.00 0.00 19 1005.7
20210622043109 91 280 0.0 0.0 0.00 0.00 0.00 19 1005.6
20210622041703 92 280 0.0 0.0 0.00 0.00 0.00 18 1005.5
20210622040144 93 280 0.0 5.0 0.00 0.00 0.00 17 1005.3
20210622034743 94 281 3.0 8.0 0.00 0.00 0.00 16 1005.1
20210622033117 94 281 4.0 12.0 0.00 0.00 0.00 15 1004.9
20210622031622 95 283 7.0 11.0 0.00 0.00 0.00 15 1004.7
20210622030052 95 282 8.0 13.0 0.00 0.00 0.00 15 1004.7
20210622024611 96 269 8.0 14.0 0.00 0.00 0.00 14 1004.5
20210622023043 97 270 8.0 15.0 0.00 0.00 0.00 14 1004.2
20210622021550 97 288 9.0 21.0 0.00 0.00 0.00 14 1004.1
20210622020056 98 284 10.0 19.0 0.00 0.00 0.00 14 1004.0
20210622014551 99 277 10.0 19.0 0.00 0.00 0.00 13 1003.9
20210622013122 100 276 9.0 19.0 0.00 0.00 0.00 12 1003.8
20210622011553 101 263 9.0 17.0 0.00 0.00 0.00 13 1003.7
20210622010153 101 284 11.0 19.0 0.00 0.00 0.00 13 1003.5
20210622004534 102 286 8.0 23.0 0.00 0.00 0.00 13 1003.4
20210622003212 103 270 12.0 20.0 0.00 0.00 0.00 13 1003.4
20210622001615 103 293 10.0 19.0 0.00 0.00 0.00 14 1003.5
20210622000023 103 294 12.0 22.0 0.00 0.00 0.00 13 1003.6
20210621234542 104 271 11.0 21.0 0.00 0.00 0.00 14 1003.7
20210621233025 103 278 11.0 21.0 0.00 0.00 0.00 14 1003.8
20210621231527 104 261 10.0 17.0 0.00 0.00 0.00 14 1003.9
20210621230039 104 296 12.0 22.0 0.00 0.00 0.00 13 1004.2
20210621224518 103 285 12.0 23.0 0.00 0.00 0.00 16 1004.4
20210621223025 104 283 12.0 22.0 0.00 0.00 0.00 15 1004.6
20210621221518 104 268 12.0 22.0 0.00 0.00 0.00 14 1004.8
20210621220009 104 274 12.0 22.0 0.00 0.00 0.00 15 1004.9
20210621214511 103 242 13.0 20.0 0.00 0.00 0.00 15 1005.1
20210621213032 104 292 12.0 21.0 0.00 0.00 0.00 14 1005.3
20210621211515 104 282 13.0 24.0 0.00 0.00 0.00 14 1005.5
20210621210006 104 281 13.0 21.0 0.00 0.00 0.00 14 1005.7
20210621204508 103 276 11.0 18.0 0.00 0.00 0.00 16 1006.0
20210621203009 103 248 8.0 22.0 0.00 0.00 0.00 16 1006.1
20210621201502 102 264 10.0 19.0 0.00 0.00 0.00 16 1006.2
20210621200157 101 292 10.0 22.0 0.00 0.00 0.00 17 1006.5
20210621194705 101 265 7.0 17.0 0.00 0.00 0.00 19 1006.7
20210621193245 101 257 6.0 17.0 0.00 0.00 0.00 20 1006.9
20210621191643 100 261 9.0 16.0 0.00 0.00 0.00 20 1007.1
20210621190125 99 296 10.0 15.0 0.00 0.00 0.00 22 1007.2
20210621184641 99 285 7.0 17.0 0.00 0.00 0.00 22 1007.4
20210621183234 98 269 11.0 20.0 0.00 0.00 0.00 21 1007.6
20210621181635 98 276 9.0 20.0 0.00 0.00 0.00 23 1007.7
20210621180119 97 271 9.0 16.0 0.00 0.00 0.00 23 1007.8
20210621174648 97 298 8.0 17.0 0.00 0.00 0.00 24 1007.7
20210621173056 96 252 10.0 16.0 0.00 0.00 0.00 24 1007.9